Weather History for PATK - November, 2012

Change the Weather History Date:

Monday, November 12, 2012

  Actual Average Record
Temperature  
Mean Temperature 25 °F -  
Max Temperature 33 °F 25 °F 45 °F (1976)
Min Temperature 17 °F 8 °F -29 °F (1971)
Degree Days  
Heating Degree Days 40    
Moisture  
Dew Point 21 °F    
Average Humidity 82    
Maximum Humidity 100    
Minimum Humidity 55    
Precipitation  
Precipitation 0.00 in - - ()
Sea Level Pressure  
Sea Level Pressure 29.96 in    
Wind  
Wind Speed 0 mph (North)    
Max Wind Speed 0 mph    
Max Gust Speed -    
Visibility 10 miles    
Events      
Averages and records for this station are not official NWS values.
T = Trace of Precipitation, MM = Missing Value Source: NWS Daily Summary

Daily Weather History Graph

Daily Weather History Graph

Search for Another Location

Airport or City:

Trip Planner

Search our weather history database for the weather conditions in past years. The results will help you decide how hot, cold, wet, or windy it might be!

Date:

Astronomy

Nov. 12, 2012 Rise Set
Actual Time 9:07 AM AKST 4:20 PM AKST
Civil Twilight 8:14 AM AKST 5:14 PM AKST
Nautical Twilight 7:18 AM AKST 6:10 PM AKST
Astronomical Twilight 6:25 AM AKST 7:02 PM AKST
Moon 7:32 AM AKST (11/12) 3:40 PM AKST (11/12)
Length of Visible Light 9h 00m
Length of Day
7h 13m
Waning Crescent, 2% of the Moon is Illuminated
Nov 12
Waning Crescent
Nov 13
New
Nov 20
First Quarter
Nov 28
Full
Dec 6
Last Quarter

Hourly Weather History & Observations

Time (AKST) Temp. Dew Point Humidity Pressure Visibility Wind Dir Wind Speed Gust Speed Precip Events Conditions
12:53 AM 21.9 °F 19.9 °F 92% 29.82 in 9.0 mi Calm Calm - N/A   Mostly Cloudy
1:53 AM 21.0 °F 19.0 °F 92% 29.84 in 10.0 mi Calm Calm - N/A   Overcast
3:53 AM 23.0 °F 21.9 °F 96% 29.86 in 10.0 mi Calm Calm - N/A   Overcast
4:53 AM 24.1 °F 23.0 °F 96% 29.86 in 10.0 mi Calm Calm - N/A   Overcast
5:53 AM 25.0 °F 24.1 °F 96% 29.87 in 10.0 mi Calm Calm - N/A   Overcast
6:53 AM 28.0 °F 26.1 °F 92% 29.88 in 10.0 mi Calm Calm - N/A   Overcast
7:53 AM 28.9 °F 26.1 °F 89% 29.90 in 10.0 mi Calm Calm - N/A   Overcast
8:53 AM 28.0 °F 25.0 °F 88% 29.91 in 10.0 mi Calm Calm - N/A   Overcast
9:53 AM 28.9 °F 24.1 °F 82% 29.93 in 10.0 mi Calm Calm - N/A   Overcast
10:53 AM 27.0 °F 21.9 °F 81% 29.95 in 10.0 mi Calm Calm - N/A   Mostly Cloudy
11:53 AM 28.0 °F 21.0 °F 75% 29.96 in 10.0 mi Calm Calm - N/A   Overcast
12:53 PM 30.0 °F 21.9 °F 72% 29.96 in 10.0 mi Calm Calm - N/A   Overcast
1:53 PM 30.9 °F 21.9 °F 69% 29.97 in 10.0 mi Calm Calm - N/A   Overcast
2:39 PM 32.0 °F 21.2 °F 64% 29.95 in 10.0 mi Calm Calm - N/A   Overcast
2:53 PM 32.0 °F 21.9 °F 66% 29.98 in 10.0 mi Calm Calm - N/A   Overcast
3:53 PM 30.9 °F 21.9 °F 69% 29.99 in 10.0 mi Calm Calm - N/A   Mostly Cloudy
4:08 PM 30.2 °F 23.0 °F 75% 29.96 in 10.0 mi Calm Calm - N/A   Overcast
4:53 PM 28.0 °F 23.0 °F 81% 30.00 in 10.0 mi Calm Calm - N/A   Overcast
5:53 PM 28.0 °F 21.9 °F 78% 30.01 in 10.0 mi Calm Calm - N/A   Overcast
6:53 PM 23.0 °F 19.9 °F 88% 30.02 in 9.0 mi Calm Calm - N/A   Mostly Cloudy
7:18 PM 23.0 °F 19.4 °F 86% 30.00 in 10.0 mi Calm Calm - N/A   Mostly Cloudy
7:53 PM 25.0 °F 19.9 °F 81% 30.03 in 10.0 mi Calm Calm - N/A   Overcast
8:53 PM 24.1 °F 19.0 °F 81% 30.05 in 10.0 mi Calm Calm - N/A   Overcast
9:53 PM 19.9 °F 19.9 °F 100% 30.05 in 10.0 mi Calm Calm - N/A   Mostly Cloudy
10:53 PM 17.1 °F 15.1 °F 92% 30.06 in 10.0 mi Calm Calm - N/A   Scattered Clouds
11:33 PM 17.6 °F 15.8 °F 93% 30.04 in 10.0 mi Calm Calm - N/A   Overcast
11:53 PM 21.0 °F 15.1 °F 78% 30.07 in 10.0 mi Calm Calm - N/A   Overcast